Regional Weather Roundup
Issued by NWS Sioux Falls, SD

Home | Current Version | Previous Version | Text Only | Print | Product List | Glossary On
Versions: 1 2 3 4 5 6 7 8 9 10 11 12 13 14 15 16 17 18 19 20 21 22 23 24 25 26 27 28 29 30 31 32 33 34 35 36 37 38 39 40 41 42 43 44 45 46 47 48 49 50
000
ASUS43 KFSD 230510
RWRFSD

WEATHER ROUNDUP FOR SE SOUTH DAKOTA/SW MINNESOTA/NW IOWA
NATIONAL WEATHER SERVICE SIOUX FALLS SD
1200 AM CDT THU MAR 23 2017

NOTE: "FAIR" INDICATES FEW OR NO CLOUDS BELOW 12,000 FEET WITH NO
SIGNIFICANT WEATHER AND OR OBSTRUCTIONS TO VISIBILITY.


SDZ038>040-050-052>070-230600-
SOUTHEAST SOUTH DAKOTA

CITY           SKY/WX    TMP DP  RH WIND       PRES   REMARKS
BROOKINGS      CLOUDY    37  25  61 S21G29    30.07F
CHAMBERLAIN    CLEAR     41  28  59 E9        29.93S
HURON          CLOUDY    39  28  64 SE18G28   29.98F
MADISON        CLOUDY    36  28  75 S18G29    30.06S
MITCHELL       CLOUDY    42  29  59 SE22G29   30.02F
SIOUX FALLS    CLOUDY    39  27  62 S14G24    30.10S
WINNER         FAIR      47  29  49 S22G31    29.90F
YANKTON        CLOUDY    43  25  49 SE10      30.08R
$$

MNZ071-072-080-081-089-090-097-098-230600-
SOUTHWEST MINNESOTA

CITY           SKY/WX    TMP DP  RH WIND       PRES   REMARKS
FAIRMONT       CLOUDY    36  23  59 SE17G26   30.20S
JACKSON        CLOUDY    36  23  60 SE17G23   30.18S
LUVERNE        CLOUDY    36  27  69 SE15G21   30.12F
MARSHALL       CLOUDY    37  25  61 S22       30.12F
MONTEVIDEO     CLOUDY    36  25  64 S13G20    30.16S
PIPESTONE      CLOUDY    36  21  55 S16G22    30.08F
REDWOOD FALLS  CLOUDY    37  23  56 SE18G26   30.18S
TRACY          CLOUDY    37  27  65 S16G22    30.13F
WINDOM         CLOUDY    37  23  56 SE15G22   30.17S
WORTHINGTON    CLOUDY    36  23  59 SE16      30.15F
$$

IAZ001>003-012>014-020>022-031-032-NEZ013-014-SDZ071-230600-
NORTHWEST IOWA

CITY           SKY/WX    TMP DP  RH WIND       PRES   REMARKS
CHEROKEE       CLOUDY    40  26  56 SE14G21   30.16F
DENISON        CLOUDY    41  23  48 SE10G17   30.14F
ESTHERVILLE    CLOUDY    35  24  64 SE20      30.19R WCI  24
LE MARS        CLOUDY    41  25  52 SE13G22   30.13F
ORANGE CITY    CLOUDY    39  27  60 SE14G20   30.12F
SHELDON        CLOUDY    39  30  70 SE23      30.11F
SIOUX CITY     CLOUDY    42  26  53 SE14      30.12F
SPENCER        CLOUDY    38  24  57 SE14      30.18S
STORM LAKE     CLOUDY    39  25  56 SE22G28   30.16F
$$

ABBREVIATIONS USED IN REMARKS
   TC - TEMPERATURE IN CELSIUS
  WCI - WIND CHILL INDEX
   HX - HEAT INDEX
  VSB - VISIBILITY




USA.gov is the U.S. government's official web portal to all federal, state and local government web resources and services.